www.pogodaiklimat.ru

Погода и климат >> Архив погоды >> Индия >> New Delhi


АРХИВ ПОГОДЫ в New Delhi

Время (UTC), дата Ветер
(напр.,м/с)
 
Видим.   Явления Облачность Т
(С)
Тd
(С)
f
(%)
Тe
(С)
Тes
(С)
Комфортность P
(гПа)
Po
(гПа)
Тmin
(С)
Tmax
(С)
R
(мм)
S
(см)
09 20.02 З 3 2000 м мгла ясно +31.4 +14.4 36 +33 +41 жарко 1003.6 1004.0
12 20.02 З 2 2000 м мгла 5/3 1050 м
[Sc Ac trans]
+29.4 +13.3 37 +31 +31 жарко 1002.7 1003.0 +32.4
15 20.02 В 2 2000 м мгла 8/4 1050 м
[Sc Ac trans]
+23.0 +16.8 68 +28 +28 душно 1004.1 1004.0
18 20.02 З 2 2000 м дымка 8/4 900 м
[Sc Ac trans]
+21.6 +17.4 77 +26 +26 душно 1004.6 1005.0
21 20.02 З 2 2000 м дымка 8/4 900 м
[Sc Ac trans]
+20.4 +17.1 81 +24 +24 комфорт 1003.7 1004.0
00 21.02 З 1 1000 м дымка 3/0
[Ac trans]
+17.6 +16.6 94 +19 +19 тепло 1004.6 1005.0
03 21.02 З 3 1000 м дымка ясно +17.4 +15.4 88 +18 +20 по сезону 1007.2 1007.0 +16.4 +32.4
06 21.02 З 4 2000 м мгла ясно +22.8 +16.6 68 +27 +36 душно 1008.2 1008.0
09 21.02 З 6 2000 м мгла 5/3 1200 м
[Sc Ac trans]
+25.0 +17.3 62 +29 +31 душно 1006.5 1007.0
12 21.02 З 4 2000 м мгла 5/3 1200 м
[Sc Ac trans]
+24.0 +15.0 57 +27 +27 жарко 1006.4 1006.0 +25.6
18 21.02 штиль 0 2000 м дымка 4/0
[Ac trans Ci fib]
+16.8 +15.4 91 +17 +17 тепло 1011.8 1012.0
21 21.02 штиль 0 2000 м дымка 4/0
[Ac trans Ci fib]
+15.8 +14.8 94 +16 +16 тепло 1009.8 1010.0
00 22.02 штиль 0 1000 м дымка ясно +13.2 +12.8 97 +13 +13 по сезону 1010.2 1010.0
03 22.02 З 2 1000 м дымка ясно +14.2 +13.5 96 +14 +17 прохладно 1012.2 1012.0 +12.0 +25.6
06 22.02 З 3 2000 м мгла ясно +25.6 +9.2 35 +26 +37 жарко 1012.9 1013.0
09 22.02 З 5 2000 м мгла ясно +26.6 +9.2 33 +27 +32 жарко 1011.1 1011.0
12 22.02 З 4 2000 м мгла ясно +24.0 +12.5 49 +26 +26 жарко 1010.4 1010.0 +27.5
15 22.02 СЗ 1 2000 м мгла ясно +19.6 +12.1 62 +22 +22 комфорт 1013.1 1013.0
18 22.02 З 2 2000 м мгла ясно +15.8 +9.7 67 +16 +16 по сезону 1014.7 1015.0
21 22.02 штиль 0 2000 м дымка ясно +13.2 +9.7 79 +13 +13 по сезону 1013.5 1014.0
00 23.02 З 2 2000 м дымка ясно +11.8 +9.0 83 +11 +11 по сезону 1013.6 1014.0
03 23.02 ЮЗ 3 2000 м дымка ясно +14.4 +10.2 76 +14 +17 прохладно 1015.3 1015.0 +11.0 +27.5
06 23.02 З 5 2000 м мгла ясно +23.4 +8.9 40 +25 +32 комфорт 1015.8 1016.0
09 23.02 СЗ 9 4000 м пыльный позёмок ясно +25.0 +1.4 21 +24 +24 комфорт 1013.9 1014.0
12 23.02 З 5 4000 м мгла ясно +23.4 +5.7 32 +24 +24 комфорт 1013.7 1014.0 +25.5
15 23.02 З 2 2000 м мгла ясно +18.6 +8.6 52 +20 +20 по сезону 1015.6 1016.0
18 23.02 З 3 2000 м мгла ясно +16.8 +8.2 57 +17 +17 по сезону 1017.2 1017.0
21 23.02 СЗ 3 2000 м мгла ясно +15.6 +7.1 57 +15 +15 по сезону 1016.0 1016.0
00 24.02 З 3 2000 м мгла ясно +14.0 +8.0 67 +13 +13 по сезону 1015.5 1016.0
03 24.02 З 4 2000 м мгла ясно +16.0 +8.1 59 +15 +17 прохладно 1016.7 1017.0 +12.4 +25.5
06 24.02 З 7 4000 м пыльный позёмок ясно +22.4 +8.5 41 +24 +27 комфорт 1017.6 1018.0
09 24.02 СЗ 5 2000 м пыльный позёмок ясно +24.8 +7.4 33 +25 +30 комфорт 1015.4 1015.0
12 24.02 СЗ 5 2000 м мгла ясно +23.0 +8.8 40 +24 +25 комфорт 1014.7 1015.0 +25.1
15 24.02 З 4 2000 м мгла ясно +19.2 +9.4 53 +20 +20 по сезону 1015.7 1016.0
18 24.02 З 5 2000 м мгла ясно +18.2 +9.0 55 +18 +18 тепло 1016.1 1016.0
21 24.02 З 4 2000 м мгла ясно +16.4 +8.6 60 +16 +16 тепло 1015.6 1016.0
00 25.02 З 4 2000 м мгла ясно +15.0 +7.8 62 +14 +14 по сезону 1014.7 1015.0
03 25.02 З 4 2000 м мгла ясно +15.0 +7.8 62 +14 +16 прохладно 1016.2 1016.0 +13.5 +25.1
06 25.02 СЗ 8 2000 м пыльный позёмок ясно +24.0 +8.3 37 +25 +27 комфорт 1016.0 1016.0
12 25.02 З 5 4000 м мгла ясно +25.6 +9.7 37 +26 +27 жарко 1011.8 1012.0 +28.1
15 25.02 З 2 2000 м мгла ясно +19.6 +11.2 58 +22 +22 комфорт 1013.5 1014.0
18 25.02 штиль 0 2000 м дымка ясно +16.8 +12.6 76 +17 +17 по сезону 1013.7 1014.0
21 25.02 ЮЗ 2 2000 м дымка ясно +15.6 +12.7 83 +16 +16 по сезону 1012.7 1013.0
00 26.02 З 1 2000 м дымка ясно +13.4 +11.5 88 +14 +14 по сезону 1012.2 1012.0
03 26.02 З 4 1000 м дымка ясно +14.0 +11.0 82 +13 +15 холодно 1013.8 1014.0 +12.4 +28.1
06 26.02 З 6 2000 м мгла ясно +23.0 +11.7 49 +25 +31 комфорт 1014.0 1014.0
09 26.02 З 5 2000 м мгла ясно +26.8 +9.5 34 +27 +32 жарко 1011.3 1011.0
12 26.02 З 5 2000 м мгла ясно +25.8 +10.5 38 +27 +27 жарко 1010.7 1011.0 +27.6
15 26.02 СЗ 1 2000 м мгла ясно +18.2 +12.5 69 +20 +20 по сезону 1012.3 1012.0
18 26.02 З 2 2000 м дымка ясно +14.8 +11.9 83 +14 +14 прохладно 1013.4 1013.0
21 26.02 З 1 2000 м дымка ясно +13.6 +11.4 87 +14 +14 по сезону 1012.2 1012.0
00 27.02 З 1 2000 м дымка ясно +12.4 +10.9 91 +12 +12 по сезону 1012.5 1013.0
03 27.02 ЮЗ 2 2000 м мгла ясно +15.8 +10.5 71 +16 +19 прохладно 1014.9 1015.0 +11.0 +27.6

 

Местоположение метеостанции New Delhi (Delhi, Индия): широта 28.58 долгота 77.20 высота над уровнем моря 216 м.

В архиве по умолчанию представлена погода в New Delhi за последнюю неделю. Архивные данные за месяц целиком и за предыдущие месяцы, начиная с января 2011 года, Вы можете получить, выбрав интересующий диапазон дат из раскрывающегося списка и нажав кнопку "Ввод!".

Внимание! Время в таблицах - всемирное. Для получения местного времени необходимо прибавить поправку, которая в New Delhi равна 5.5 ч.

Смотрите также архив погоды в соседних городах и на ближайших метеорологических станциях:

Погода в New Delhi Airport (Delhi, Индия) (8 км)
Погода в Ridge (Delhi, Индия) (10 км)
Погода в New Delhi Aya Nagar (Delhi, Индия) (13 км)
Погода в Meerut (Uttar Pradesh, Индия) (70 км)
Погода в Karnal (Haryana, Индия) (126 км)
Погода в Hissar (Haryana, Индия) (157 км)
Погода в Pilani (Rajasthan, Индия) (161 км)
Погода в Najibabad (Uttar Pradesh, Индия) (163 км)
Погода в Agra (Uttar Pradesh, Индия) (176 км)
Погода в Ambala (Haryana, Индия) (204 км)

Пояснения к столбцам:

Ветер - указаны скорость ветра в м/с - средняя за 10 мин, порывы в срок и между сроками (в фигурных скобках) и направление, откуда дует ветер: С - северный, СВ - северо-восточный, В - восточный, ЮВ - юго-восточный, Ю - южный, ЮЗ - юго-западный, З - западный, СЗ - северо-западный.
Видимость - горизонтальная дальность видимости в метрах или километрах. При видимости от 1 до 10 км при отсутствии осадков обычно наблюдается дымка, при ухудшении видимости до 1 км и менее - туман. В сухую погоду видимость может ухудшаться дымом, пылью или мглою.
Явления - указаны атмосферные явления, наблюдавшиеся в срок или в последний час перед сроком; фигурными скобками обозначены явления, наблюдавшиеся между сроками (за 1-3 часа до срока); квадратными скобками обозначены град или гололедные отложения с указанием их диаметра в мм.
Облачность - указаны через наклонную черту общая и нижняя облачность в баллах и высота нижней границы облаков в метрах; квадратными скобками обозначены формы облаков: Ci - перистые, Cs - перисто-слоистые, Cc - перисто-кучевые, Ac - высококучевые, As - высокослоистые, Sc - слоисто-кучевые, Ns - слоисто-дождевые, Cu - кучевые, Cb - кучево-дождевые. Подробнее классификацию облаков см. в Атласе облаков (PDF).
T - Температура воздуха - температура, измеренная на высоте 2 м над землей.
Td - Температура точки росы - температура, при понижении до которой содержащийся в воздухе водяной пар достигнет насыщения.
f - Относительная влажность воздуха - влажноcть воздуха, измеренная на высоте 2 м над землей.
Te - Эффективная температура - температура, которую ощущает одетый по сезону человек в тени. Характеристика душности погоды. При расчете учитывается влияние влажности воздуха и скорости ветра на теплоощущения человека.
Tes - Эффективная температура на солнце - температура, которую ощущает человек, с поправкой на солнечный нагрев. Характеристика знойности погоды. Зависит от высоты солнца над горизонтом, облачности и скорости ветра. Ночью, в пасмурную погоду, а также при ветре 12 м/с и более поправка равна нулю.
P - Атмосферное давление - приведенное к уровню моря атмосферное давление.
Po - Атмосферное давление - измеренное на уровне метеостанции атмосферное давление.
Tmin - Минимальная температура - минимум температуры воздуха на высоте 2 м над землей.
Tmax - Максимальная температура - максимум температуры воздуха на высоте 2 м над землей.
R - Количество осадков - Количество выпавших осадков, мм. При наведении курсора мыши на число - период времени, за который выпало указанное количество осадков.
S - Снежный покров - Высота снежного покрова, см. При наведении курсора мыши на число - состояние снежного покрова и степень покрытия местности в баллах.